Location: Buenos Aires
(34.6076°S, 58.4371°W)
Time: 12:08:11
(UTC-03:00)

Envisat - Pass Details

Date: 25 June 2021
Orbit: 764 x 766 km, 98.2° (Epoch: 03 August)

Event Time Altitude Azimuth Distance (km) Brightness Sun altitude
Rises 18:53:27 0° 178° (S) 3,266 6.0 -12.4°
Reaches altitude 10° 18:55:56 10° 186° (S) 2,332 5.4 -12.9°
Maximum altitude 19:00:35 36° 251° (WSW) 1,211 4.5 -13.8°
Drops below altitude 10° 19:05:13 10° 316° (NW) 2,307 6.5 -14.7°
Sets 19:07:39 0° 325° (NW) 3,225 7.2 -15.2°
